| time (UTC) | temp F | wind direction | speed MPH | gust MPH | rain 1hr in | rain 24hr in | rain mn in | humidity % | barometer mb |
| 20260904191023 | 62 | 321 | 14.0 | 20.0 | 0.00 | 0.00 | 0.00 | 1 | 1011.1 |
| 20260904190519 | 61 | 336 | 14.0 | 20.0 | 0.00 | 0.00 | 0.00 | 1 | 1011.1 |
| 20260904190046 | 62 | 313 | 14.0 | 19.0 | 0.00 | 0.00 | 0.00 | 1 | 1011.2 |
| 20260904185516 | 62 | 315 | 13.0 | 17.0 | 0.00 | 0.00 | 0.00 | 1 | 1011.2 |
| 20260904185018 | 63 | 312 | 14.0 | 17.0 | 0.00 | 0.00 | 0.00 | 1 | 1011.1 |
| 20260904184552 | 64 | 330 | 10.0 | 14.0 | 0.00 | 0.00 | 0.00 | 1 | 1011.0 |
| 20260904184016 | 64 | 326 | 8.0 | 13.0 | 0.00 | 0.00 | 0.00 | 1 | 1011.0 |
| 20260904183516 | 64 | 307 | 8.0 | 14.0 | 0.00 | 0.00 | 0.00 | 1 | 1011.0 |
| 20260904183058 | 63 | 315 | 10.0 | 15.0 | 0.00 | 0.00 | 0.00 | 1 | 1010.9 |
| 20260904182525 | 62 | 305 | 10.0 | 15.0 | 0.00 | 0.00 | 0.00 | 1 | 1010.9 |
| 20260904182023 | 62 | 335 | 11.0 | 16.0 | 0.00 | 0.00 | 0.00 | 1 | 1010.9 |
| 20260904181548 | 63 | 342 | 13.0 | 16.0 | 0.00 | 0.00 | 0.00 | 1 | 1010.6 |
| 20260904181020 | 63 | 323 | 11.0 | 16.0 | 0.00 | 0.00 | 0.00 | 1 | 1010.8 |
| 20260904180521 | 64 | 332 | 10.0 | 13.0 | 0.00 | 0.00 | 0.00 | 1 | 1010.8 |
| 20260904175521 | 65 | 227 | 3.0 | 10.0 | 0.00 | 0.00 | 0.00 | 1 | 1010.8 |
| 20260904175019 | 65 | 293 | 3.0 | 7.0 | 0.00 | 0.00 | 0.00 | 1 | 1010.6 |
| 20260904174548 | 65 | 274 | 4.0 | 6.0 | 0.00 | 0.00 | 0.00 | 1 | 1010.7 |
| 20260904174020 | 65 | 294 | 3.0 | 7.0 | 0.00 | 0.00 | 0.00 | 1 | 1010.7 |
| 20260904173518 | 64 | 300 | 3.0 | 5.0 | 0.00 | 0.00 | 0.00 | 1 | 1010.4 |
| 20260904173108 | 64 | 330 | 1.0 | 5.0 | 0.00 | 0.00 | 0.00 | 1 | 1010.3 |
| 20260904172520 | 64 | 349 | 2.0 | 8.0 | 0.00 | 0.00 | 0.00 | 1 | 1010.3 |
| 20260904172018 | 64 | 349 | 3.0 | 8.0 | 0.00 | 0.00 | 0.00 | 1 | 1010.2 |
| 20260904171555 | 63 | 360 | 5.0 | 8.0 | 0.00 | 0.00 | 0.00 | 1 | 1010.0 |
| 20260904171017 | 63 | 339 | 5.0 | 8.0 | 0.00 | 0.00 | 0.00 | 1 | 1010.0 |
| 20260904170516 | 63 | 318 | 5.0 | 9.0 | 0.00 | 0.00 | 0.00 | 1 | 1010.1 |
| 20260904165521 | 63 | 277 | 6.0 | 10.0 | 0.00 | 0.00 | 0.00 | 1 | 1010.3 |
| 20260904165018 | 63 | 256 | 7.0 | 10.0 | 0.00 | 0.00 | 0.00 | 1 | 1010.2 |
| 20260904164549 | 63 | 252 | 3.0 | 10.0 | 0.00 | 0.00 | 0.00 | 1 | 1010.1 |
| 20260904164018 | 63 | 214 | 8.0 | 10.0 | 0.00 | 0.00 | 0.00 | 1 | 1010.3 |
| 20260904163522 | 63 | 199 | 2.0 | 8.0 | 0.00 | 0.00 | 0.00 | 1 | 1010.1 |
| 20260904163047 | 63 | 272 | 0.0 | 7.0 | 0.00 | 0.00 | 0.00 | 1 | 1010.1 |
| 20260904162519 | 63 | 272 | 1.0 | 11.0 | 0.00 | 0.00 | 0.00 | 1 | 1010.0 |
| 20260904162017 | 63 | 265 | 4.0 | 12.0 | 0.00 | 0.00 | 0.00 | 1 | 1010.3 |
| 20260904161550 | 64 | 241 | 9.0 | 12.0 | 0.00 | 0.00 | 0.00 | 1 | 1010.4 |
| 20260904161017 | 64 | 198 | 6.0 | 10.0 | 0.00 | 0.00 | 0.00 | 1 | 1010.2 |
| 20260904160526 | 64 | 167 | 6.0 | 11.0 | 0.00 | 0.00 | 0.00 | 1 | 1010.0 |
| 20260904160048 | 64 | 198 | 6.0 | 12.0 | 0.00 | 0.00 | 0.00 | 1 | 1010.0 |
| 20260904155520 | 65 | 188 | 8.0 | 14.0 | 0.00 | 0.00 | 0.00 | 1 | 1010.1 |
| 20260904155021 | 65 | 195 | 11.0 | 14.0 | 0.00 | 0.00 | 0.00 | 1 | 1010.2 |
| 20260904154549 | 66 | 155 | 7.0 | 15.0 | 0.00 | 0.00 | 0.00 | 1 | 1010.0 |
| 20260904154019 | 66 | 137 | 11.0 | 17.0 | 0.00 | 0.00 | 0.00 | 1 | 1009.7 |
| 20260904153519 | 66 | 143 | 12.0 | 17.0 | 0.00 | 0.00 | 0.00 | 1 | 1009.4 |
| 20260904153105 | 66 | 131 | 9.0 | 16.0 | 0.00 | 0.00 | 0.00 | 1 | 1009.5 |
| 20260904152518 | 66 | 119 | 10.0 | 17.0 | 0.00 | 0.00 | 0.00 | 1 | 1009.2 |
| 20260904152020 | 66 | 101 | 12.0 | 22.0 | 0.00 | 0.00 | 0.00 | 1 | 1008.9 |
| 20260904151551 | 65 | 92 | 15.0 | 22.0 | 0.00 | 0.00 | 0.00 | 1 | 1008.3 |
| 20260904151019 | 65 | 107 | 17.0 | 22.0 | 0.00 | 0.00 | 0.00 | 1 | 1008.0 |
| 20260904150524 | 65 | 105 | 17.0 | 21.0 | 0.00 | 0.00 | 0.00 | 1 | 1008.1 |
| 20260904150052 | 66 | 82 | 13.0 | 21.0 | 0.00 | 0.00 | 0.00 | 1 | 1008.2 |
| 20260904145520 | 65 | 86 | 12.0 | 18.0 | 0.00 | 0.00 | 0.00 | 1 | 1008.4 |
| 20260904145018 | 64 | 56 | 11.0 | 15.0 | 0.00 | 0.00 | 0.00 | 1 | 1008.1 |
| 20260904144552 | 64 | 71 | 10.0 | 15.0 | 0.00 | 0.00 | 0.00 | 1 | 1008.4 |
| 20260904144017 | 64 | 102 | 10.0 | 18.0 | 0.00 | 0.00 | 0.00 | 1 | 1008.3 |
| 20260904143518 | 64 | 89 | 13.0 | 18.0 | 0.00 | 0.00 | 0.00 | 1 | 1008.5 |
| 20260904143056 | 64 | 94 | 12.0 | 17.0 | 0.00 | 0.00 | 0.00 | 1 | 1008.4 |
| 20260904142517 | 64 | 94 | 11.0 | 17.0 | 0.00 | 0.00 | 0.00 | 1 | 1008.3 |
| 20260904142018 | 64 | 71 | 11.0 | 16.0 | 0.00 | 0.00 | 0.00 | 1 | 1008.6 |
| 20260904141551 | 63 | 74 | 11.0 | 16.0 | 0.00 | 0.00 | 0.00 | 1 | 1008.5 |
| 20260904141016 | 62 | 80 | 10.0 | 14.0 | 0.00 | 0.00 | 0.00 | 1 | 1008.6 |
| 20260904140519 | 61 | 89 | 9.0 | 13.0 | 0.00 | 0.00 | 0.00 | 1 | 1008.8 |
| 20260904140050 | 61 | 69 | 9.0 | 13.0 | 0.00 | 0.00 | 0.00 | 1 | 1008.7 |
| 20260904135519 | 61 | 88 | 9.0 | 13.0 | 0.00 | 0.00 | 0.00 | 1 | 1008.6 |
| 20260904135021 | 61 | 82 | 8.0 | 13.0 | 0.00 | 0.00 | 0.00 | 1 | 1008.7 |
| 20260904134606 | 60 | 60 | 8.0 | 12.0 | 0.00 | 0.00 | 0.00 | 1 | 1008.9 |
| 20260904134018 | 60 | 71 | 8.0 | 13.0 | 0.00 | 0.00 | 0.00 | 1 | 1008.8 |
| 20260904133517 | 60 | 66 | 9.0 | 13.0 | 0.00 | 0.00 | 0.00 | 1 | 1008.7 |
| 20260904133055 | 60 | 71 | 9.0 | 13.0 | 0.00 | 0.00 | 0.00 | 1 | 1008.7 |
| 20260904132517 | 60 | 69 | 10.0 | 13.0 | 0.00 | 0.00 | 0.00 | 1 | 1008.9 |
| 20260904132020 | 60 | 60 | 10.0 | 13.0 | 0.00 | 0.00 | 0.00 | 1 | 1008.8 |
| 20260904131552 | 60 | 63 | 9.0 | 13.0 | 0.00 | 0.00 | 0.00 | 1 | 1008.7 |
| 20260904131018 | 60 | 82 | 9.0 | 14.0 | 0.00 | 0.00 | 0.00 | 1 | 1008.5 |
| 20260904130521 | 60 | 78 | 10.0 | 14.0 | 0.00 | 0.00 | 0.00 | 1 | 1008.7 |
| 20260904130059 | 60 | 73 | 9.0 | 13.0 | 0.00 | 0.00 | 0.00 | 1 | 1008.4 |
| 20260904125519 | 59 | 69 | 9.0 | 13.0 | 0.00 | 0.00 | 0.00 | 1 | 1008.2 |
| 20260904125019 | 59 | 74 | 11.0 | 14.0 | 0.00 | 0.00 | 0.00 | 1 | 1008.3 |
| 20260904124602 | 58 | 46 | 10.0 | 14.0 | 0.00 | 0.00 | 0.00 | 1 | 1008.1 |
| 20260904124017 | 58 | 63 | 10.0 | 13.0 | 0.00 | 0.00 | 0.00 | 1 | 1008.2 |
| 20260904123521 | 59 | 61 | 9.0 | 14.0 | 0.00 | 0.00 | 0.00 | 1 | 1008.2 |
| 20260904123052 | 59 | 58 | 9.0 | 14.0 | 0.00 | 0.00 | 0.00 | 1 | 1008.3 |
| 20260904122519 | 60 | 51 | 10.0 | 13.0 | 0.00 | 0.00 | 0.00 | 1 | 1008.1 |
| 20260904122020 | 60 | 61 | 9.0 | 13.0 | 0.00 | 0.00 | 0.00 | 1 | 1008.3 |
| 20260904121558 | 60 | 63 | 9.0 | 14.0 | 0.00 | 0.00 | 0.00 | 1 | 1008.3 |
| 20260904121019 | 60 | 67 | 9.0 | 16.0 | 0.00 | 0.00 | 0.00 | 1 | 1008.2 |
| 20260904120521 | 60 | 69 | 11.0 | 14.0 | 0.00 | 0.00 | 0.00 | 1 | 1008.4 |
| 20260904120110 | 61 | 62 | 10.0 | 16.0 | 0.00 | 0.00 | 0.00 | 1 | 1008.3 |
| 20260904115519 | 61 | 59 | 10.0 | 16.0 | 0.00 | 0.00 | 0.00 | 1 | 1008.2 |
| 20260904115025 | 61 | 56 | 10.0 | 16.0 | 0.00 | 0.00 | 0.00 | 1 | 1008.4 |
| 20260904114552 | 61 | 63 | 10.0 | 16.0 | 0.00 | 0.00 | 0.00 | 1 | 1008.5 |
| 20260904114021 | 61 | 59 | 11.0 | 16.0 | 0.00 | 0.00 | 0.00 | 1 | 1008.3 |
| 20260904113521 | 61 | 59 | 12.0 | 17.0 | 0.00 | 0.00 | 0.00 | 1 | 1008.0 |
| 20260904113051 | 62 | 61 | 12.0 | 17.0 | 0.00 | 0.00 | 0.00 | 1 | 1008.0 |
| 20260904112522 | 62 | 57 | 13.0 | 17.0 | 0.00 | 0.00 | 0.00 | 1 | 1008.0 |
| 20260904112021 | 62 | 72 | 11.0 | 15.0 | 0.00 | 0.00 | 0.00 | 1 | 1008.3 |
| 20260904111612 | 61 | 66 | 10.0 | 16.0 | 0.00 | 0.00 | 0.00 | 1 | 1008.5 |
| 20260904111021 | 62 | 74 | 11.0 | 18.0 | 0.00 | 0.00 | 0.00 | 1 | 1008.2 |
| 20260904110517 | 62 | 65 | 13.0 | 18.0 | 0.00 | 0.00 | 0.00 | 1 | 1008.2 |
| 20260904110059 | 62 | 75 | 13.0 | 18.0 | 0.00 | 0.00 | 0.00 | 1 | 1008.2 |
| 20260904105517 | 62 | 72 | 12.0 | 17.0 | 0.00 | 0.00 | 0.00 | 1 | 1008.5 |
| 20260904105018 | 62 | 57 | 12.0 | 17.0 | 0.00 | 0.00 | 0.00 | 1 | 1008.3 |
| 20260904104552 | 62 | 60 | 12.0 | 18.0 | 0.00 | 0.00 | 0.00 | 1 | 1008.6 |
| 20260904104021 | 62 | 71 | 13.0 | 19.0 | 0.00 | 0.00 | 0.00 | 1 | 1008.4 |
| 20260904103519 | 62 | 65 | 14.0 | 19.0 | 0.00 | 0.00 | 0.00 | 1 | 1008.6 |
| 20260904103051 | 61 | 76 | 14.0 | 19.0 | 0.00 | 0.00 | 0.00 | 1 | 1008.7 |
| 20260904102519 | 61 | 65 | 12.0 | 19.0 | 0.00 | 0.00 | 0.00 | 1 | 1008.7 |
| 20260904102021 | 60 | 76 | 12.0 | 19.0 | 0.00 | 0.00 | 0.00 | 1 | 1008.9 |
| 20260904101556 | 60 | 59 | 14.0 | 19.0 | 0.00 | 0.00 | 0.00 | 1 | 1008.8 |
| 20260904101019 | 60 | 66 | 14.0 | 18.0 | 0.00 | 0.00 | 0.00 | 1 | 1008.9 |
| 20260904100523 | 60 | 56 | 12.0 | 18.0 | 0.00 | 0.00 | 0.00 | 1 | 1008.8 |
| 20260904100056 | 60 | 58 | 14.0 | 19.0 | 0.00 | 0.00 | 0.00 | 1 | 1008.6 |
| 20260904095519 | 59 | 50 | 14.0 | 19.0 | 0.00 | 0.00 | 0.00 | 1 | 1008.7 |
| 20260904095018 | 59 | 60 | 12.0 | 17.0 | 0.00 | 0.00 | 0.00 | 1 | 1008.9 |
| 20260904094603 | 59 | 52 | 12.0 | 19.0 | 0.00 | 0.00 | 0.00 | 1 | 1009.1 |
| 20260904094021 | 59 | 72 | 14.0 | 20.0 | 0.00 | 0.00 | 0.00 | 1 | 1009.0 |
| 20260904093520 | 59 | 61 | 15.0 | 20.0 | 0.00 | 0.00 | 0.00 | 1 | 1009.0 |
| 20260904093053 | 59 | 57 | 15.0 | 22.0 | 0.00 | 0.00 | 0.00 | 1 | 1008.8 |
| 20260904092520 | 59 | 53 | 14.0 | 22.0 | 0.00 | 0.00 | 0.00 | 1 | 1008.9 |
| 20260904092019 | 59 | 64 | 15.0 | 21.0 | 0.00 | 0.00 | 0.00 | 1 | 1008.8 |
| 20260904091549 | 59 | 59 | 16.0 | 21.0 | 0.00 | 0.00 | 0.00 | 1 | 1008.9 |
| 20260904091020 | 59 | 82 | 11.0 | 17.0 | 0.00 | 0.00 | 0.00 | 1 | 1008.9 |
| 20260904090517 | 59 | 67 | 12.0 | 17.0 | 0.00 | 0.00 | 0.00 | 1 | 1009.0 |
| 20260904090053 | 59 | 70 | 12.0 | 17.0 | 0.00 | 0.00 | 0.00 | 1 | 1009.2 |
| 20260904085517 | 59 | 39 | 13.0 | 17.0 | 0.00 | 0.00 | 0.00 | 1 | 1009.3 |
| 20260904085026 | 59 | 55 | 11.0 | 15.0 | 0.00 | 0.00 | 0.00 | 1 | 1009.3 |
| 20260904084552 | 59 | 53 | 11.0 | 17.0 | 0.00 | 0.00 | 0.00 | 1 | 1009.4 |
| 20260904084023 | 59 | 60 | 10.0 | 17.0 | 0.00 | 0.00 | 0.00 | 1 | 1009.3 |
| 20260904083520 | 59 | 66 | 12.0 | 17.0 | 0.00 | 0.00 | 0.00 | 1 | 1009.4 |
| 20260904083055 | 58 | 55 | 11.0 | 16.0 | 0.00 | 0.00 | 0.00 | 1 | 1009.2 |
| 20260904082517 | 57 | 63 | 10.0 | 15.0 | 0.00 | 0.00 | 0.00 | 1 | 1009.5 |
| 20260904082018 | 56 | 65 | 9.0 | 13.0 | 0.00 | 0.00 | 0.00 | 1 | 1009.5 |
| 20260904081635 | 55 | 59 | 8.0 | 11.0 | 0.00 | 0.00 | 0.00 | 1 | 1009.5 |
| 20260904081018 | 55 | 61 | 8.0 | 11.0 | 0.00 | 0.00 | 0.00 | 1 | 1009.5 |
| 20260904080517 | 54 | 60 | 7.0 | 10.0 | 0.00 | 0.00 | 0.00 | 1 | 1009.5 |
| 20260904080056 | 55 | 61 | 7.0 | 10.0 | 0.00 | 0.00 | 0.00 | 1 | 1009.5 |
| 20260904075518 | 55 | 63 | 7.0 | 10.0 | 0.00 | 0.00 | 0.00 | 1 | 1009.6 |
| 20260904075019 | 55 | 59 | 7.0 | 10.0 | 0.00 | 0.00 | 0.00 | 1 | 1009.7 |
| 20260904074607 | 54 | 59 | 7.0 | 10.0 | 0.00 | 0.00 | 0.00 | 1 | 1009.9 |
| 20260904074020 | 54 | 55 | 5.0 | 7.0 | 0.00 | 0.00 | 0.00 | 1 | 1009.9 |
| 20260904073518 | 55 | 66 | 4.0 | 6.0 | 0.00 | 0.00 | 0.00 | 1 | 1010.1 |
| 20260904073102 | 54 | 75 | 4.0 | 5.0 | 0.00 | 0.00 | 0.00 | 1 | 1010.1 |
| 20260904072520 | 54 | 70 | 3.0 | 5.0 | 0.00 | 0.00 | 0.00 | 1 | 1010.1 |
| 20260904072019 | 55 | 355 | 2.0 | 3.0 | 0.00 | 0.00 | 0.00 | 1 | 1010.1 |
| 20260904071559 | 55 | 355 | 2.0 | 3.0 | 0.00 | 0.00 | 0.00 | 1 | 1010.2 |
| 20260904071020 | 55 | 355 | 0.0 | 2.0 | 0.00 | 0.00 | 0.00 | 1 | 1010.2 |
| 20260904070519 | 56 | 355 | 0.0 | 3.0 | 0.00 | 0.00 | 0.00 | 1 | 1010.3 |
| 20260904070108 | 55 | 355 | 1.0 | 3.0 | 0.00 | 0.00 | 0.00 | 1 | 1010.2 |
| 20260904065519 | 55 | 355 | 2.0 | 3.0 | 0.00 | 0.00 | 0.00 | 1 | 1010.1 |
| 20260904065024 | 55 | 355 | 2.0 | 4.0 | 0.00 | 0.00 | 0.00 | 1 | 1010.1 |
| 20260904064551 | 54 | 355 | 2.0 | 5.0 | 0.00 | 0.00 | 0.00 | 1 | 1010.1 |
| 20260904064019 | 54 | 355 | 3.0 | 5.0 | 0.00 | 0.00 | 0.00 | 1 | 1010.2 |
| 20260904063520 | 53 | 355 | 3.0 | 5.0 | 0.00 | 0.00 | 0.00 | 1 | 1010.4 |
| 20260904063055 | 52 | 355 | 3.0 | 5.0 | 0.00 | 0.00 | 0.00 | 1 | 1010.4 |
| 20260904062518 | 52 | 355 | 3.0 | 4.0 | 0.00 | 0.00 | 0.00 | 1 | 1010.6 |
| 20260904062020 | 52 | 355 | 3.0 | 4.0 | 0.00 | 0.00 | 0.00 | 1 | 1010.7 |
| 20260904061604 | 52 | 355 | 3.0 | 4.0 | 0.00 | 0.00 | 0.00 | 1 | 1010.7 |
| 20260904061018 | 52 | 355 | 2.0 | 5.0 | 0.00 | 0.00 | 0.00 | 1 | 1010.8 |
| 20260904060518 | 53 | 345 | 3.0 | 5.0 | 0.00 | 0.00 | 0.00 | 1 | 1010.8 |
| 20260904060056 | 54 | 355 | 2.0 | 4.0 | 0.00 | 0.00 | 0.00 | 1 | 1010.9 |
| 20260904055519 | 54 | 118 | 1.0 | 3.0 | 0.00 | 0.00 | 0.00 | 1 | 1010.9 |
| 20260904055019 | 55 | 118 | 0.0 | 0.0 | 0.00 | 0.00 | 0.00 | 1 | 1010.8 |
| 20260904054605 | 55 | 118 | 0.0 | 4.0 | 0.00 | 0.00 | 0.00 | 1 | 1010.8 |
| 20260904054018 | 56 | 118 | 0.0 | 6.0 | 0.00 | 0.00 | 0.00 | 1 | 1010.8 |
| 20260904053518 | 55 | 110 | 2.0 | 6.0 | 0.00 | 0.00 | 0.00 | 1 | 1010.9 |
| 20260904053104 | 55 | 320 | 2.0 | 4.0 | 0.00 | 0.00 | 0.00 | 1 | 1011.1 |
| 20260904052521 | 56 | 320 | 0.0 | 2.0 | 0.00 | 0.00 | 0.00 | 1 | 1011.1 |
| 20260904052019 | 56 | 320 | 0.0 | 2.0 | 0.00 | 0.00 | 0.00 | 1 | 1011.2 |
| 20260904051601 | 56 | 320 | 0.0 | 2.0 | 0.00 | 0.00 | 0.00 | 1 | 1011.3 |
| 20260904051020 | 56 | 320 | 0.0 | 2.0 | 0.00 | 0.00 | 0.00 | 1 | 1011.2 |
| 20260904050519 | 56 | 320 | 0.0 | 4.0 | 0.00 | 0.00 | 0.00 | 1 | 1011.2 |
| 20260904045520 | 56 | 320 | 2.0 | 3.0 | 0.00 | 0.00 | 0.00 | 1 | 1011.1 |
| 20260904045021 | 56 | 320 | 2.0 | 4.0 | 0.00 | 0.00 | 0.00 | 1 | 1011.1 |
| 20260904044558 | 56 | 320 | 2.0 | 5.0 | 0.00 | 0.00 | 0.00 | 1 | 1011.0 |
| 20260904044022 | 57 | 320 | 3.0 | 6.0 | 0.00 | 0.00 | 0.00 | 1 | 1011.0 |
| 20260904043520 | 56 | 320 | 4.0 | 9.0 | 0.00 | 0.00 | 0.00 | 1 | 1010.9 |
| 20260904043112 | 56 | 323 | 5.0 | 9.0 | 0.00 | 0.00 | 0.00 | 1 | 1010.7 |
| 20260904042519 | 55 | 321 | 5.0 | 8.0 | 0.00 | 0.00 | 0.00 | 1 | 1010.6 |
| 20260904042018 | 54 | 315 | 4.0 | 8.0 | 0.00 | 0.00 | 0.00 | 1 | 1010.6 |
| 20260904041606 | 54 | 315 | 3.0 | 6.0 | 0.00 | 0.00 | 0.00 | 1 | 1010.7 |
| 20260904041022 | 54 | 315 | 3.0 | 8.0 | 0.00 | 0.00 | 0.00 | 1 | 1010.8 |
| 20260904040516 | 54 | 315 | 5.0 | 8.0 | 0.00 | 0.00 | 0.00 | 1 | 1010.8 |
| 20260904040035 | 53 | 313 | 6.0 | 9.0 | 0.00 | 0.00 | 0.00 | 1 | 1010.8 |
| 20260904035517 | 53 | 314 | 5.0 | 10.0 | 0.00 | 0.00 | 0.00 | 1 | 1010.8 |
| 20260904035017 | 53 | 311 | 6.0 | 9.0 | 0.00 | 0.00 | 0.00 | 1 | 1010.9 |
| 20260904034533 | 53 | 313 | 6.0 | 9.0 | 0.00 | 0.00 | 0.00 | 1 | 1010.9 |
| 20260904034017 | 52 | 326 | 5.0 | 8.0 | 0.00 | 0.00 | 0.00 | 1 | 1010.9 |
| 20260904033518 | 52 | 350 | 4.0 | 5.0 | 0.00 | 0.00 | 0.00 | 1 | 1011.1 |
| 20260904033038 | 53 | 350 | 4.0 | 6.0 | 0.00 | 0.00 | 0.00 | 1 | 1011.0 |
| 20260904032521 | 54 | 350 | 4.0 | 6.0 | 0.00 | 0.00 | 0.00 | 1 | 1010.9 |
| 20260904032018 | 54 | 325 | 4.0 | 9.0 | 0.00 | 0.00 | 0.00 | 1 | 1010.9 |
| 20260904031543 | 54 | 325 | 6.0 | 9.0 | 0.00 | 0.00 | 0.00 | 1 | 1010.8 |
| 20260904031017 | 54 | 340 | 5.0 | 9.0 | 0.00 | 0.00 | 0.00 | 1 | 1010.8 |
| 20260904030518 | 54 | 318 | 6.0 | 9.0 | 0.00 | 0.00 | 0.00 | 1 | 1010.9 |
| 20260904030038 | 54 | 313 | 7.0 | 10.0 | 0.00 | 0.00 | 0.00 | 1 | 1011.0 |
| 20260904025516 | 53 | 319 | 7.0 | 10.0 | 0.00 | 0.00 | 0.00 | 1 | 1010.8 |
| 20260904025016 | 53 | 323 | 7.0 | 9.0 | 0.00 | 0.00 | 0.00 | 1 | 1010.6 |
| 20260904024539 | 53 | 319 | 7.0 | 9.0 | 0.00 | 0.00 | 0.00 | 1 | 1010.6 |
| 20260904024016 | 53 | 327 | 6.0 | 9.0 | 0.00 | 0.00 | 0.00 | 1 | 1010.7 |
| 20260904023517 | 53 | 351 | 6.0 | 9.0 | 0.00 | 0.00 | 0.00 | 1 | 1010.7 |
| 20260904023035 | 54 | 323 | 4.0 | 8.0 | 0.00 | 0.00 | 0.00 | 1 | 1010.8 |
| 20260904022517 | 54 | 329 | 6.0 | 8.0 | 0.00 | 0.00 | 0.00 | 1 | 1010.7 |
| 20260904022020 | 55 | 317 | 4.0 | 6.0 | 0.00 | 0.00 | 0.00 | 1 | 1010.5 |
| 20260904021542 | 56 | 317 | 3.0 | 5.0 | 0.00 | 0.00 | 0.00 | 1 | 1010.5 |
| 20260904021017 | 57 | 317 | 3.0 | 5.0 | 0.00 | 0.00 | 0.00 | 1 | 1010.4 |
| 20260904020518 | 58 | 317 | 3.0 | 9.0 | 0.00 | 0.00 | 0.00 | 1 | 1010.7 |
| 20260904020033 | 58 | 317 | 5.0 | 11.0 | 0.00 | 0.00 | 0.00 | 1 | 1010.4 |
| 20260904015518 | 58 | 327 | 7.0 | 9.0 | 0.00 | 0.00 | 0.00 | 1 | 1010.6 |
| 20260904015019 | 59 | 309 | 4.0 | 6.0 | 0.00 | 0.00 | 0.00 | 1 | 1010.4 |
| 20260904014604 | 60 | 309 | 3.0 | 7.0 | 0.00 | 0.00 | 0.00 | 1 | 1010.4 |
| 20260904014015 | 61 | 309 | 4.0 | 8.0 | 0.00 | 0.00 | 0.00 | 1 | 1010.4 |
| 20260904013517 | 62 | 303 | 3.0 | 10.0 | 0.00 | 0.00 | 0.00 | 1 | 1010.3 |
| 20260904013034 | 63 | 259 | 5.0 | 11.0 | 0.00 | 0.00 | 0.00 | 1 | 1010.6 |
| 20260904012516 | 64 | 300 | 8.0 | 15.0 | 0.00 | 0.00 | 0.00 | 1 | 1010.4 |
| 20260904012016 | 64 | 285 | 9.0 | 15.0 | 0.00 | 0.00 | 0.00 | 1 | 1010.3 |
| 20260904011539 | 65 | 295 | 9.0 | 17.0 | 0.00 | 0.00 | 0.00 | 1 | 1010.4 |
| 20260904011020 | 65 | 265 | 9.0 | 17.0 | 0.00 | 0.00 | 0.00 | 1 | 1010.5 |
| 20260904010517 | 66 | 285 | 13.0 | 17.0 | 0.00 | 0.00 | 0.00 | 1 | 1010.6 |
| 20260904010041 | 66 | 289 | 12.0 | 19.0 | 0.00 | 0.00 | 0.00 | 1 | 1010.6 |
| 20260904005518 | 65 | 265 | 13.0 | 19.0 | 0.00 | 0.01 | 0.00 | 1 | 1010.4 |
| 20260904005018 | 66 | 263 | 13.0 | 18.0 | 0.00 | 0.01 | 0.00 | 1 | 1010.4 |
| 20260904004540 | 66 | 268 | 13.0 | 18.0 | 0.00 | 0.01 | 0.00 | 1 | 1010.5 |
| 20260904004020 | 67 | 265 | 13.0 | 18.0 | 0.00 | 0.01 | 0.00 | 1 | 1010.4 |
| 20260904003518 | 66 | 265 | 12.0 | 18.0 | 0.00 | 0.01 | 0.00 | 1 | 1010.5 |
| 20260904003034 | 67 | 281 | 11.0 | 19.0 | 0.00 | 0.01 | 0.00 | 1 | 1010.6 |
| 20260904002516 | 67 | 277 | 14.0 | 20.0 | 0.00 | 0.01 | 0.00 | 1 | 1010.3 |
| 20260904002028 | 67 | 265 | 13.0 | 21.0 | 0.00 | 0.01 | 0.00 | 1 | 1010.2 |
| 20260904001538 | 67 | 254 | 16.0 | 23.0 | 0.00 | 0.01 | 0.00 | 1 | 1010.2 |
| 20260904001019 | 67 | 299 | 15.0 | 23.0 | 0.00 | 0.01 | 0.00 | 1 | 1010.1 |
| 20260904000520 | 68 | 276 | 15.0 | 19.0 | 0.00 | 0.01 | 0.00 | 1 | 1010.2 |
| 20260904000110 | 68 | 276 | 12.0 | 26.0 | 0.00 | 0.01 | 0.00 | 1 | 1010.1 |
| 20260903235520 | 68 | 259 | 15.0 | 26.0 | 0.00 | 0.02 | 0.00 | 1 | 1010.1 |
| 20260903235019 | 68 | 264 | 14.0 | 23.0 | 0.00 | 0.02 | 0.00 | 1 | 1010.1 |
| 20260903234537 | 68 | 269 | 14.0 | 25.0 | 0.00 | 0.02 | 0.00 | 1 | 1010.0 |
| 20260903234018 | 68 | 251 | 18.0 | 25.0 | 0.00 | 0.02 | 0.00 | 1 | 1010.1 |
| 20260903233518 | 68 | 263 | 17.0 | 25.0 | 0.00 | 0.02 | 0.00 | 1 | 1010.1 |
| 20260903233037 | 69 | 277 | 17.0 | 25.0 | 0.00 | 0.02 | 0.00 | 1 | 1010.1 |
| 20260903232521 | 69 | 252 | 18.0 | 25.0 | 0.00 | 0.02 | 0.00 | 1 | 1010.2 |
| 20260903232017 | 69 | 280 | 19.0 | 25.0 | 0.00 | 0.02 | 0.00 | 1 | 1010.2 |
| 20260903231542 | 69 | 259 | 18.0 | 26.0 | 0.00 | 0.02 | 0.00 | 1 | 1010.2 |
| 20260903231018 | 69 | 246 | 20.0 | 27.0 | 0.00 | 0.02 | 0.00 | 1 | 1010.2 |
| 20260903230522 | 69 | 234 | 20.0 | 28.0 | 0.00 | 0.02 | 0.00 | 1 | 1010.1 |
| 20260903230037 | 69 | 232 | 20.0 | 28.0 | 0.00 | 0.02 | 0.00 | 1 | 1010.1 |
| 20260903225518 | 70 | 240 | 16.0 | 24.0 | 0.00 | 0.02 | 0.00 | 1 | 1009.8 |
| 20260903225015 | 70 | 249 | 18.0 | 25.0 | 0.00 | 0.02 | 0.00 | 1 | 1009.9 |
| 20260903224545 | 70 | 228 | 19.0 | 26.0 | 0.00 | 0.02 | 0.00 | 1 | 1009.9 |
| 20260903224015 | 70 | 254 | 19.0 | 26.0 | 0.00 | 0.02 | 0.00 | 1 | 1009.9 |
| 20260903223519 | 70 | 245 | 17.0 | 24.0 | 0.00 | 0.02 | 0.00 | 1 | 1009.8 |
| 20260903223039 | 70 | 286 | 16.0 | 22.0 | 0.00 | 0.02 | 0.00 | 1 | 1009.6 |
| 20260903222519 | 70 | 234 | 17.0 | 26.0 | 0.00 | 0.02 | 0.00 | 1 | 1009.8 |
| 20260903222019 | 70 | 254 | 19.0 | 26.0 | 0.00 | 0.02 | 0.00 | 1 | 1009.6 |
| 20260903221535 | 70 | 263 | 18.0 | 26.0 | 0.00 | 0.02 | 0.00 | 1 | 1009.2 |
| 20260903221015 | 70 | 277 | 17.0 | 24.0 | 0.00 | 0.02 | 0.00 | 1 | 1009.5 |
| 20260903220518 | 70 | 271 | 15.0 | 23.0 | 0.00 | 0.02 | 0.00 | 1 | 1009.4 |
| 20260903220040 | 70 | 250 | 15.0 | 23.0 | 0.00 | 0.02 | 0.00 | 1 | 1009.3 |
| 20260903215516 | 71 | 263 | 14.0 | 25.0 | 0.00 | 0.02 | 0.00 | 1 | 1009.3 |
| 20260903215018 | 70 | 223 | 16.0 | 25.0 | 0.00 | 0.02 | 0.00 | 1 | 1009.3 |
| 20260903214548 | 70 | 256 | 12.0 | 22.0 | 0.00 | 0.02 | 0.00 | 1 | 1009.3 |
| 20260903214019 | 70 | 248 | 13.0 | 25.0 | 0.00 | 0.02 | 0.00 | 1 | 1009.4 |
| 20260903213520 | 71 | 235 | 17.0 | 25.0 | 0.00 | 0.02 | 0.00 | 1 | 1009.4 |
| 20260903213039 | 71 | 229 | 16.0 | 26.0 | 0.00 | 0.02 | 0.00 | 1 | 1009.3 |
| 20260903212519 | 71 | 244 | 18.0 | 26.0 | 0.00 | 0.02 | 0.00 | 1 | 1009.3 |
| 20260903212019 | 71 | 240 | 19.0 | 25.0 | 0.00 | 0.02 | 0.00 | 1 | 1009.0 |
| 20260903211543 | 71 | 260 | 17.0 | 23.0 | 0.00 | 0.02 | 0.00 | 1 | 1009.0 |
| 20260903211017 | 68 | 215 | 5.0 | 17.0 | 0.00 | 0.02 | 0.00 | 1 | 1009.0 |
| 20260903210519 | 68 | 229 | 8.0 | 20.0 | 0.00 | 0.02 | 0.00 | 1 | 1009.2 |
| 20260903210044 | 69 | 245 | 13.0 | 21.0 | 0.00 | 0.02 | 0.00 | 1 | 1009.2 |
| 20260903205519 | 70 | 236 | 14.0 | 22.0 | 0.00 | 0.02 | 0.00 | 1 | 1009.2 |
| 20260903205015 | 70 | 254 | 16.0 | 22.0 | 0.00 | 0.02 | 0.00 | 1 | 1009.1 |
| 20260903204540 | 70 | 263 | 9.0 | 19.0 | 0.00 | 0.02 | 0.00 | 1 | 1009.2 |
| 20260903204020 | 69 | 239 | 10.0 | 19.0 | 0.00 | 0.02 | 0.00 | 1 | 1009.2 |
| 20260903203523 | 69 | 240 | 14.0 | 22.0 | 0.00 | 0.02 | 0.00 | 1 | 1009.2 |
| 20260903203043 | 70 | 257 | 6.0 | 18.0 | 0.00 | 0.02 | 0.00 | 1 | 1009.2 |
| 20260903202518 | 70 | 249 | 13.0 | 17.0 | 0.00 | 0.02 | 0.00 | 1 | 1009.1 |
| 20260903202018 | 68 | 197 | 9.0 | 19.0 | 0.00 | 0.02 | 0.00 | 1 | 1009.1 |
| 20260903201546 | 68 | 216 | 12.0 | 20.0 | 0.00 | 0.02 | 0.00 | 1 | 1009.1 |
| 20260903201017 | 68 | 222 | 13.0 | 20.0 | 0.00 | 0.02 | 0.00 | 1 | 1009.1 |
| 20260903200520 | 68 | 212 | 11.0 | 21.0 | 0.00 | 0.02 | 0.00 | 1 | 1009.2 |
| 20260903200041 | 69 | 206 | 8.0 | 20.0 | 0.00 | 0.02 | 0.00 | 1 | 1009.2 |
| 20260903195520 | 69 | 237 | 15.0 | 20.0 | 0.00 | 0.02 | 0.00 | 1 | 1009.2 |
| 20260903195021 | 68 | 264 | 11.0 | 23.0 | 0.00 | 0.02 | 0.00 | 1 | 1009.1 |
| 20260903194547 | 69 | 245 | 18.0 | 23.0 | 0.00 | 0.02 | 0.00 | 1 | 1009.1 |
| 20260903194017 | 70 | 268 | 17.0 | 22.0 | 0.00 | 0.02 | 0.00 | 1 | 1009.0 |
| 20260903193521 | 69 | 286 | 15.0 | 21.0 | 0.00 | 0.02 | 0.00 | 1 | 1009.0 |
| 20260903193051 | 70 | 256 | 14.0 | 25.0 | 0.00 | 0.02 | 0.00 | 1 | 1009.3 |
| 20260903192517 | 69 | 259 | 13.0 | 25.0 | 0.00 | 0.02 | 0.00 | 1 | 1009.0 |
| 20260903192016 | 68 | 216 | 13.0 | 22.0 | 0.00 | 0.02 | 0.00 | 1 | 1009.0 |
| 20260903191545 | 67 | 257 | 14.0 | 23.0 | 0.00 | 0.02 | 0.00 | 1 | 1009.0 |